Kuiper-00115

operational
NORAD ID: 65152 Int'l Des: 2025-171 Owner: KUIP Country: US Constellation: kuiper
LEOCIRCULAR

Kuiper-00115について

説明を読み込み中...

リアルタイム位置

3D地球を読み込み中...

次回通過

高度履歴

Altitude vs Time

uPlot chart will show altitude changes over time

軌道要素

1 65152U 25171W 25303.83336806 -.00965256 00000-0 -97569-1 0 9997
2 65152 51.9101 22.7496 0011254 63.3180 209.3968 14.93389410 5040
Epoch: Oct 30, 2025 • Age: 6 hours

現在のステータス

高度 588.3 km
速度 7.58 km/s
衛星直下点 51.54°N, 58.54°E
打ち上げ日 Aug 11, 2025
運用期間 0.2 years
タイプ internet

技術仕様

分類 Payload
質量 490.00 kg
乾燥質量 490.00 kg
総質量 490.00 kg
長さ 1.80 m
直径 0.70 m
スパン 5.00 m
形状 Box + 2 pan
製造者 KUIP
バスタイプ Kuiper
フェーズステータス In Orbit
所有者/国 KUIP/US

大規模コンステレーション

Loading constellations...